Temperature
20 19 20 19 19 19 19 19 19 19 19 18 18 18 18 19 19 19 18 18 18 18 18 18 18 18 18 18 18 18 18 18 18 18 18 18 18 18 18 17 17 17 18
20 19 20 20 19 18 18 19 19 19 19 18 18 18 18 19 19 19 19 18 18 18 18 18 18 18 18 18 18 18 18 18 18 18 18 18 18 18 18 18 17 17 17
19 18 19 19 19 18 18 19 19 19 19 19 19 19 19 19 19 18 18 18 18 18 18 17 17 17 17 17 18 18 18 18 18 18 18 18 17 18 18 18 18 17 17
18 18 18 19 19 19 18 18 18 18 19 18 19 19 19 18 18 18 18 18 18 17 17 17 17 17 17 17 17 17 18 18 18 18 18 17 18 17 18 18 18 18 17
18 17 18 18 18 19 18 18 18 18 18 18 18 18 18 18 18 18 17 17 17 17 17 17 17 17 17 17 17 18 18 18 18 17 17 17 17 17 17 18 17 17 17
18 17 18 18 18 18 18 18 18 18 18 18 18 18 17 17 17 17 17 17 17 17 17 17 17 17 17 17 17 18 18 18 18 18 17 17 17 17 17 17 17 17 17
18 18 18 19 18 19 19 18 18 18 17 17 17 17 17 17 17 17 17 17 17 17 17 17 17 17 17 17 17 17 18 18 18 18 17 17 17 17 17 18 18 18 18
19 19 18 20 19 19 19 18 18 18 18 18 18 17 17 17 17 17 17 17 17 17 17 17 17 17 17 17 17 17 18 18 18 17 17 17 17 17 17 18 18 18 18
19 19 18 19 19 19 18 18 18 18 18 18 17 17 17 17 17 17 17 17 17 17 17 17 17 17 17 17 17 17 17 18 17 17 17 17 17 17 18 18 18 18 18
19 19 19 18 18 18 18 18 18 18 17 17 17 17 17 17 17 17 17 17 17 17 17 17 17 17 17 17 17 17 17 17 17 17 17 17 17 17 17 17 17 17 17
19 19 18 17 18 18 17 19 19 18 18 17 17 17 17 16 17 16 16 17 17 16 16 16 17 17 17 17 17 17 17 17 17 17 17 16 17 17 17 17 16 16 16
19 19 18 18 18 17 17 17 17 17 17 17 16 17 17 16 16 16 16 16 16 16 16 16 17 17 16 16 16 17 17 16 17 16 16 16 16 16 16 16 16 16 16
19 19 19 18 18 18 17 17 17 17 16 16 17 16 16 16 16 16 16 16 16 16 16 16 16 16 16 16 16 16 16 17 17 17 16 16 16 16 16 16 16 16 16
19 20 20 18 18 18 18 17 17 17 16 16 16 16 16 16 16 16 16 16 16 16 16 16 16 16 16 16 16 16 16 16 16 16 16 16 16 16 16 16 16 16 16
19 20 20 19 18 17 17 17 17 17 16 16 16 16 16 17 17 16 16 16 16 16 16 16 16 16 16 16 15 15 15 15 15 15 16 15 15 16 16 16 15 15 15
18 19 19 19 18 17 17 17 17 17 16 16 16 16 16 16 16 16 16 16 16 16 16 15 16 15 15 15 15 15 14 15 15 14 15 15 14 15 15 15 15 15 15
17 18 19 18 18 17 17 17 16 16 16 17 16 16 16 16 16 16 15 15 15 15 15 15 15 14 14 14 14 14 14 14 13 13 13 13 13 14 14 14 14 14 14
17 17 18 18 18 17 17 17 17 16 16 16 15 15 16 16 16 15 15 14 14 14 14 14 14 13 13 13 13 13 13 12 12 12 12 12 13 13 13 13 13 13 13
16 17 18 18 18 17 17 16 16 16 15 15 15 14 16 16 16 15 14 14 14 13 13 13 12 12 12 12 12 12 12 11 11 12 12 12 12 12 12 12 12 12 12
16 17 19 18 17 17 17 16 15 15 15 15 15 15 15 15 15 14 13 14 13 13 13 13 12 12 11 11 11 11 11 11 11 11 11 11 11 11 11 11 11 12 11
16 17 17 19 18 16 16 16 15 16 15 15 15 15 14 14 14 13 12 13 13 12 12 12 11 11 10 10 9 10 11 11 11 11 10 10 10 11 10 10 10 10 10
16 17 18 18 17 16 15 15 15 14 14 14 14 14 13 13 13 12 12 11 11 10 9 8 8 9 9 9 8 8 10 11 12 11 10 9 9 9 10 9 9 9 8
15 16 17 16 16 15 15 15 15 15 14 13 13 13 13 12 12 12 11 11 10 9 8 7 7 6 7 8 7 7 8 10 8 9 9 9 8 8 8 7 8 7 7
14 16 16 16 15 15 15 15 14 13 13 13 12 12 11 11 10 8 8 7 7 7 6 6 6 5 6 7 7 7 6 6 6 7 7 7 6 6 7 6 7 7 6
14 14 15 15 14 14 14 13 13 13 12 12 11 10 9 8 7 7 7 7 6 6 6 5 5 4 5 5 6 6 5 5 6 6 6 6 6 6 6 6 6 6 6
13 13 13 14 14 13 13 13 13 13 12 11 10 9 9 8 7 6 6 6 5 5 5 5 4 4 4 4 4 4 5 5 5 5 5 5 5 5 6 6 6 6 6
Wind_Speed
8 14 14 16 12 11 11 12 13 15 14 14 14 14 14 14 13 12 10 9 8 7 8 8 8 9 9 9 10 9 9 8 7 6 4 2 1 1 1 2 3 1 9
10 14 14 15 13 11 11 12 13 14 14 14 13 13 13 13 12 11 9 7 6 6 6 6 6 6 8 8 7 7 7 8 8 7 6 5 5 2 2 4 6 0 6
9 12 13 13 14 12 12 12 13 14 15 14 14 13 13 12 10 9 7 6 4 3 3 3 4 5 7 7 7 7 7 7 7 6 7 6 7 4 1 1 3 2 4
10 10 12 14 15 15 14 14 13 14 14 14 14 13 11 10 9 7 5 4 2 3 4 5 6 7 7 6 6 6 5 5 5 7 6 2 3 7 3 3 2 3 4
10 9 12 14 15 14 13 12 12 12 13 12 11 11 9 9 7 5 3 3 3 5 6 7 7 7 6 5 5 5 4 5 5 7 5 6 2 10 5 3 2 1 3
10 10 12 12 15 14 14 14 14 13 12 11 9 8 7 7 6 5 3 3 4 6 7 7 8 8 6 6 5 5 5 5 8 3 1 2 3 7 3 4 7 6 1
10 10 12 10 14 15 15 14 14 14 12 11 9 8 7 6 6 5 4 5 5 6 7 8 8 8 6 5 4 4 4 4 7 4 3 2 7 5 3 5 6 6 4
10 10 12 12 14 14 13 13 13 13 12 10 9 8 8 7 6 6 5 5 4 4 5 6 5 4 3 3 3 3 4 6 5 2 3 3 10 4 4 4 4 4 3
9 10 11 13 14 14 12 12 12 12 12 10 9 9 9 8 6 5 5 5 4 4 5 4 3 2 2 2 3 3 3 5 3 2 2 2 8 4 3 2 2 2 2
7 8 8 11 12 13 13 13 13 12 11 10 9 7 7 7 6 6 5 5 4 4 4 3 3 2 1 1 2 2 4 6 2 1 2 7 6 3 3 3 3 3 4
7 7 9 8 9 10 12 13 13 12 11 10 9 8 7 5 5 6 6 5 3 4 4 3 2 0 3 6 4 3 7 1 1 3 4 7 4 2 3 4 5 5 5
9 8 10 10 10 10 9 10 9 9 9 8 7 7 4 2 1 2 6 4 3 4 3 3 2 5 7 4 5 6 4 2 1 1 5 7 2 2 3 4 6 7 8
7 8 8 8 9 10 9 8 7 7 7 7 7 5 4 3 3 4 3 5 4 4 5 4 4 4 3 4 4 4 4 4 2 2 6 6 1 2 3 4 6 9 10
6 5 6 10 9 9 9 7 6 6 6 7 7 7 6 5 4 3 2 2 2 2 2 4 4 2 4 5 6 5 5 4 4 5 4 8 1 3 4 6 6 7 10
6 4 5 9 10 8 8 7 7 6 6 6 7 7 5 4 3 4 3 2 2 3 5 4 4 4 5 6 6 6 6 6 5 7 4 6 2 4 5 5 6 7 7
5 4 4 7 10 10 8 7 6 6 5 5 6 5 4 4 2 3 3 4 3 4 6 6 6 5 6 6 6 6 6 8 6 6 8 3 4 0 3 4 4 5 6
3 4 3 7 10 10 9 8 7 6 6 5 2 1 1 2 2 3 2 2 3 4 3 4 4 4 5 5 6 6 7 7 6 6 8 9 6 5 5 4 4 3 4
3 4 3 4 9 9 8 8 6 4 3 3 3 4 4 4 3 1 1 3 3 3 4 4 5 6 5 6 6 7 7 7 8 9 11 12 13 12 11 12 9 6 6
3 2 3 4 8 8 6 6 6 5 5 5 5 7 8 8 7 4 4 5 5 5 5 5 4 5 6 7 8 9 9 10 11 13 14 15 16 16 16 10 13 12 9
4 3 4 6 8 8 8 8 8 8 7 8 9 9 10 9 9 6 6 6 5 4 5 6 6 6 7 7 10 11 10 10 11 12 15 15 16 14 12 11 11 13 14
5 5 7 9 9 9 8 8 8 7 7 8 9 10 11 10 9 7 5 5 6 5 5 5 5 7 7 6 9 12 12 12 13 11 11 9 11 10 10 10 11 11 10
7 7 8 9 9 8 7 6 6 8 7 8 9 10 10 9 8 6 5 5 5 5 5 5 6 7 8 6 7 11 12 12 10 7 7 9 11 11 11 10 12 12 15
8 9 9 9 9 9 10 10 9 10 8 6 5 4 5 5 5 5 6 6 6 7 5 4 5 7 7 7 5 6 8 10 12 11 10 8 8 9 11 12 14 16 16
11 12 13 12 12 12 10 10 9 7 5 4 4 2 2 3 5 5 4 4 4 4 3 4 4 6 6 7 7 6 7 10 11 10 11 12 12 12 11 12 14 15 15
15 14 15 15 14 13 10 10 9 8 6 4 3 2 2 2 4 5 5 4 3 3 3 3 4 5 6 6 7 7 9 9 11 12 13 13 13 13 13 13 13 13 15
15 14 15 15 14 13 11 10 9 9 5 3 1 4 4 3 3 5 6 5 3 3 3 3 4 5 5 5 6 6 7 8 10 12 14 15 16 16 15 14 14 13 15
Wind_Direction
149 137 151 155 155 145 131 115 111 116 124 125 126 129 125 118 121 123 125 120 117 112 105 101 101 94 85 75 70 64 58 46 26 14 2 359 62 116 263 292 275 236 118
143 141 149 151 152 144 132 121 117 116 116 118 119 119 117 119 123 125 127 127 128 129 125 118 109 102 92 83 74 58 44 31 14 357 326 252 171 153 270 298 318 227 141
147 140 153 153 149 143 136 134 132 128 124 122 120 120 120 122 124 124 131 139 140 135 124 113 99 82 74 64 55 46 35 24 6 335 285 255 135 120 195 309 8 82 156
150 149 151 156 151 152 153 152 147 141 134 128 123 124 125 124 122 126 140 136 113 73 61 67 80 86 82 71 61 55 43 29 1 302 261 323 105 112 118 109 110 167 185
146 146 134 155 153 156 156 153 148 142 135 131 129 129 129 128 129 129 125 95 72 70 70 71 76 84 88 84 82 71 49 21 321 285 5 27 36 100 98 83 71 125 230
142 143 129 153 152 157 156 158 152 144 141 139 141 140 141 139 136 132 120 99 91 87 83 90 97 95 93 89 75 56 33 357 296 280 88 109 68 78 68 52 51 53 59
142 140 140 148 146 154 156 160 151 142 144 150 152 151 151 151 141 129 115 101 96 95 99 104 103 98 93 82 67 48 19 322 293 329 37 175 101 96 82 68 61 53 53
147 144 137 136 141 145 147 151 148 144 150 155 154 152 149 150 144 134 121 115 118 121 119 114 116 113 100 78 47 14 348 316 291 328 294 82 79 70 58 47 58 61 52
151 144 144 141 138 129 127 131 137 144 151 153 159 160 153 150 147 144 137 127 121 117 111 104 105 99 81 43 20 4 349 304 295 304 250 99 79 51 29 5 4 14 356
144 138 139 143 143 135 132 136 141 142 142 146 157 156 148 154 153 153 164 120 114 125 126 100 70 57 67 70 41 349 283 252 273 117 162 74 55 19 346 325 314 310 305
156 151 149 150 151 149 138 143 144 138 141 153 162 157 185 185 170 156 103 84 90 109 111 89 72 43 236 201 176 237 261 280 160 78 87 74 42 356 319 304 290 285 286
164 168 172 167 166 159 150 150 156 156 168 169 171 170 194 164 135 77 104 110 125 141 152 151 196 237 243 234 200 213 261 324 342 82 90 80 34 342 323 307 292 281 279
158 183 187 178 179 167 157 160 164 166 168 168 175 184 177 188 184 203 185 187 185 187 204 195 211 240 277 293 299 301 304 287 311 267 104 97 357 296 290 282 273 264 258
150 165 174 191 183 179 160 176 160 169 173 175 166 182 187 205 195 213 200 166 212 205 228 234 243 247 260 266 275 281 283 289 288 289 128 114 67 299 283 277 274 262 244
144 126 163 185 178 176 184 169 163 163 182 170 183 190 216 219 194 203 167 248 281 283 274 281 282 265 265 257 262 268 271 274 276 278 276 121 107 308 288 270 273 275 266
150 139 138 176 178 183 189 173 165 174 163 190 196 191 218 251 243 262 247 258 290 311 327 332 332 312 298 298 285 282 288 283 282 289 285 262 125 161 320 294 251 254 262
133 106 130 170 177 183 183 174 180 178 188 189 174 132 300 297 307 279 286 345 27 21 1 348 324 310 305 313 304 296 285 290 296 294 292 290 266 207 179 224 239 226 222
127 94 90 155 168 180 181 174 169 150 153 126 126 89 55 47 32 358 64 52 23 14 5 356 345 329 318 318 311 303 300 289 275 268 263 262 266 263 229 205 199 217 243
132 88 80 135 160 164 150 136 120 120 108 101 95 84 73 64 55 50 47 43 17 17 16 356 348 341 321 309 306 299 292 287 285 280 282 274 269 267 265 226 192 189 217
116 88 93 120 129 130 134 134 122 108 96 84 77 79 77 71 66 65 68 41 22 18 18 6 344 331 315 312 302 295 286 276 274 274 269 262 256 254 251 253 230 213 191
134 109 112 120 137 149 153 144 125 116 111 101 88 78 75 69 59 45 39 33 12 10 3 348 333 308 298 303 302 291 278 268 257 254 269 271 268 257 249 249 253 261 254
144 125 121 128 136 145 135 116 118 117 99 88 86 78 74 73 65 54 22 352 348 324 298 310 314 302 293 292 298 305 293 284 265 288 302 286 281 283 278 271 270 280 282
148 128 124 122 121 115 115 116 115 116 119 117 109 113 100 78 43 17 355 342 323 299 316 325 326 319 320 312 306 302 309 312 327 306 291 294 313 304 301 297 284 279 280
148 137 131 125 117 112 118 123 133 132 131 136 147 138 121 34 354 351 354 357 346 331 9 355 8 337 336 325 322 308 305 305 304 308 312 309 299 288 291 293 284 282 280
150 141 133 125 118 115 120 128 132 127 135 150 143 193 270 353 2 2 21 22 5 357 31 12 359 347 335 332 325 322 315 308 301 296 293 292 290 286 282 280 281 283 278
143 136 127 121 121 125 131 134 128 121 125 137 84 319 325 349 13 37 19 25 1 344 344 331 337 336 338 328 324 317 313 314 311 306 302 299 296 294 293 290 286 281 278
Height
1541 1539 1540 1542 1543 1544 1546 1548 1550 1552 1554 1555 1556 1558 1559 1560 1561 1562 1563 1564 1566 1567 1568 1568 1569 1570 1570 1570 1570 1570 1570 1569 1570 1569 1568 1568 1568 1568 1568 1568 1567 1569 1569
1541 1539 1539 1541 1543 1545 1547 1549 1551 1553 1554 1556 1557 1558 1560 1561 1562 1563 1564 1565 1567 1568 1568 1569 1570 1571 1571 1571 1570 1570 1570 1570 1570 1569 1568 1568 1568 1568 1567 1567 1567 1567 1568
1540 1540 1540 1541 1543 1545 1547 1550 1552 1554 1555 1557 1559 1560 1561 1562 1563 1563 1565 1566 1567 1568 1568 1569 1569 1570 1570 1570 1569 1569 1569 1569 1569 1569 1568 1570 1570 1569 1568 1567 1567 1567 1568
1539 1541 1542 1542 1544 1545 1548 1550 1552 1554 1556 1558 1559 1560 1561 1562 1563 1564 1566 1567 1567 1568 1568 1569 1569 1569 1569 1569 1568 1568 1568 1569 1569 1569 1570 1570 1570 1568 1568 1568 1568 1568 1569
1539 1541 1542 1542 1543 1545 1547 1550 1552 1555 1557 1559 1560 1561 1562 1562 1563 1564 1566 1566 1567 1567 1568 1569 1570 1569 1569 1568 1568 1568 1567 1568 1569 1568 1570 1568 1569 1568 1568 1569 1569 1569 1569
1539 1540 1539 1541 1543 1545 1547 1550 1552 1553 1556 1558 1560 1561 1562 1563 1564 1565 1566 1566 1567 1567 1568 1569 1569 1569 1569 1568 1568 1568 1568 1568 1568 1570 1569 1568 1568 1568 1568 1569 1569 1568 1568
1540 1541 1540 1541 1543 1545 1548 1550 1552 1554 1556 1559 1560 1562 1563 1564 1564 1565 1566 1566 1567 1567 1568 1568 1569 1569 1569 1568 1568 1568 1568 1567 1567 1570 1569 1568 1566 1566 1567 1568 1567 1567 1567
1540 1541 1541 1542 1544 1546 1548 1551 1553 1555 1555 1558 1561 1562 1563 1565 1565 1565 1566 1567 1568 1568 1568 1568 1569 1570 1569 1568 1567 1567 1567 1567 1567 1567 1567 1568 1566 1566 1567 1567 1566 1566 1566
1540 1542 1543 1544 1545 1547 1549 1552 1553 1554 1557 1559 1562 1562 1563 1564 1564 1564 1565 1566 1567 1568 1568 1568 1568 1568 1568 1567 1566 1566 1565 1566 1565 1565 1566 1566 1564 1565 1565 1565 1566 1566 1566
1541 1542 1544 1546 1547 1547 1549 1551 1552 1555 1557 1559 1560 1561 1563 1563 1563 1564 1565 1565 1566 1567 1567 1568 1567 1567 1567 1566 1565 1565 1564 1565 1565 1565 1566 1564 1564 1564 1564 1565 1565 1565 1566
1540 1541 1543 1545 1546 1549 1550 1550 1551 1553 1555 1557 1559 1560 1562 1564 1564 1565 1565 1565 1565 1565 1566 1566 1566 1566 1566 1565 1564 1564 1564 1566 1566 1565 1566 1563 1564 1564 1564 1565 1565 1565 1565
1539 1541 1543 1546 1548 1549 1550 1551 1552 1553 1555 1557 1559 1560 1562 1563 1564 1565 1564 1565 1565 1565 1565 1565 1564 1564 1565 1566 1565 1565 1566 1566 1566 1566 1565 1563 1563 1564 1564 1564 1564 1564 1564
1539 1541 1544 1545 1548 1550 1551 1552 1554 1555 1556 1556 1558 1559 1561 1562 1564 1565 1567 1566 1566 1565 1566 1565 1565 1565 1565 1565 1565 1565 1564 1565 1565 1566 1564 1562 1562 1563 1563 1563 1563 1563 1563
1538 1541 1542 1544 1546 1549 1551 1552 1553 1555 1557 1557 1557 1558 1560 1562 1563 1565 1566 1566 1566 1567 1566 1566 1567 1564 1563 1563 1563 1563 1563 1563 1563 1563 1562 1559 1559 1558 1559 1559 1559 1559 1560
1538 1540 1542 1545 1546 1548 1550 1552 1553 1555 1556 1558 1557 1558 1561 1563 1563 1564 1565 1565 1566 1567 1567 1566 1566 1564 1563 1563 1562 1562 1561 1561 1560 1558 1558 1556 1555 1555 1554 1554 1554 1554 1555
1537 1538 1540 1542 1544 1546 1549 1551 1552 1554 1556 1558 1560 1561 1561 1562 1563 1563 1564 1564 1564 1564 1564 1563 1563 1562 1563 1562 1561 1560 1559 1558 1557 1555 1554 1553 1550 1549 1549 1549 1549 1548 1548
1537 1537 1538 1540 1542 1545 1548 1550 1553 1555 1557 1559 1560 1560 1560 1560 1560 1560 1562 1562 1561 1560 1560 1559 1559 1560 1559 1558 1557 1556 1554 1553 1552 1550 1548 1548 1547 1544 1542 1541 1541 1540 1540
1536 1537 1538 1541 1542 1545 1548 1550 1552 1553 1554 1556 1558 1558 1557 1558 1558 1558 1559 1559 1557 1557 1557 1556 1556 1556 1556 1554 1552 1550 1549 1547 1544 1542 1541 1539 1539 1539 1537 1533 1531 1532 1532
1534 1536 1537 1539 1541 1544 1546 1548 1548 1549 1551 1552 1553 1554 1555 1556 1556 1557 1557 1555 1555 1555 1553 1553 1553 1551 1551 1549 1547 1546 1544 1542 1540 1538 1536 1533 1532 1531 1530 1528 1522 1522 1521
1533 1534 1535 1537 1539 1541 1543 1545 1547 1548 1549 1549 1550 1551 1553 1554 1554 1554 1553 1553 1553 1551 1549 1549 1548 1548 1546 1543 1541 1540 1537 1534 1530 1528 1526 1524 1522 1521 1521 1520 1517 1515 1513
1531 1533 1534 1535 1536 1539 1543 1546 1546 1547 1548 1549 1550 1550 1550 1551 1552 1552 1552 1550 1549 1548 1546 1545 1543 1542 1541 1538 1535 1533 1531 1528 1524 1521 1521 1520 1518 1516 1515 1514 1511 1511 1509
1529 1531 1533 1534 1535 1539 1542 1544 1545 1546 1546 1546 1546 1548 1549 1549 1549 1549 1548 1547 1545 1544 1543 1541 1539 1537 1535 1534 1531 1528 1525 1522 1519 1519 1515 1515 1514 1512 1509 1507 1506 1504 1501
1526 1528 1531 1533 1534 1536 1537 1538 1541 1542 1543 1545 1546 1547 1547 1546 1546 1544 1543 1541 1540 1540 1539 1536 1535 1533 1531 1530 1528 1527 1524 1519 1517 1515 1512 1512 1509 1508 1504 1501 1501 1499 1496
1522 1525 1527 1530 1532 1534 1536 1537 1541 1542 1543 1545 1546 1546 1545 1543 1542 1540 1538 1536 1534 1535 1534 1533 1532 1530 1529 1527 1527 1525 1524 1522 1519 1513 1511 1509 1507 1503 1499 1496 1495 1493 1490
1520 1522 1523 1526 1529 1531 1534 1536 1539 1540 1542 1543 1544 1544 1543 1543 1541 1538 1534 1533 1533 1532 1530 1528 1527 1526 1525 1524 1524 1523 1521 1518 1517 1514 1510 1507 1504 1500 1495 1491 1490 1487 1484
1517 1520 1522 1524 1527 1530 1533 1536 1536 1537 1538 1539 1538 1541 1542 1540 1538 1536 1532 1531 1532 1531 1529 1527 1525 1524 1522 1521 1521 1519 1517 1516 1513 1511 1507 1503 1500 1496 1491 1487 1484 1481 1478